Terug naar catalogus

COSMOS 1275 DEB

LostPO
NORAD 42162·DEBRIS·🇷🇺 Russia

Gelanceerd Jun 4, 1981 vanaf Plesetsk Cosmodrome

Loading…

Volgende Passages (komende 24 uur)

TLE

VerouderdSource: Space-Track

Epoch: Aug 8, 2026, 02:33 UTC

1 42162U 81053SA  26220.10688751  .00000974  00000-0  73417-3 0  9995
2 42162  82.8772 136.3350 0073055 196.7969 222.5250 13.92088159645402

Volg COSMOS 1275 DEB in realtime met AllMySat

Download on the App Store